Погода в Покровске

Украина / Донецкая область     48°16′51″N   37°10′45″E
темп.,
°C
ветер,
м/с
пор.,
м/с
влажн.,
%
обл.,
%
осадки,
мм/ч
давл.,
гПа
погр.,
м
3 августа, вт
вт300:00+24зюз225414 0.0 101112
03:00+22ююз2262100 0.0 101120
06:00+23юз226773 0.0 101131
09:00+27з235734 0.0 1012521
12:00+30зюз4646100 0.0 10121509
15:00+31зюз354273 0.0 10111967
18:00+22зсз5118280 3.7 1011357
21:00+21юз358817 9.8 1013128
4 августа, ср
ср400:00+20сз3688100 0.1 1013113
03:00+18с3976100 0.1 1015155
06:00+18ссв348785 0.0 1016110
09:00+23ссв34620 0.0 1017494
12:00+26ссв44400 0.0 10171971
15:00+27с333612 0.0 10162402
18:00+27с234133 0.0 1016721
21:00+21с33550 0.0 101734
5 августа, чт
чт500:00+20ссв225114 0.0 101712
03:00+19ссв2254100 0.0 101718
06:00+18всв22594 0.0 101825
09:00+24вюв2445100 0.0 1017369
12:00+28вюв233175 0.0 10162173
15:00+30вюв132963 0.0 10152378
18:00+30ссз113260 0.0 1013933
21:00+22св46515 0.0 101385
6 августа, пт
пт600:00+21в35460 0.0 101271
03:00+23вюв393857 0.0 1012230
06:00+21юв413450 0.0 1011248
09:00+27юв712355 0.0 1010598
12:00+33ююв79295 0.0 10091645
15:00+34ююв682632 0.0 10072665
18:00+33вюв5832100 0.0 1006330
21:00+27в51339100 0.1 1006316
7 августа, сб
сб700:00+22св4868100 6.2 1006106
03:00+20св4974100 9.6 1005137
06:00+20всв587393 0.6 1006126
09:00+27вюв6124671 0.9 1005770
12:00+29юв71143100 0.4 10051023
15:00+28ююв61049100 0.4 1006629
18:00+27юв81354100 0.1 1006626
21:00+21зсз5870100 0.1 1008218